Miscellaneous Local Product
Issued by NWS North Platte, NE

Home | Current Version | Previous Version | Graphics & Text | Print | Product List | Glossary On
Versions: 1 2 3 4 5 6 7 8 9 10 11 12 13 14 15 16 17 18 19 20 21 22 23 24 25 26 27 28 29 30 31 32 33 34 35 36 37 38 39 40 41 42 43 44 45 46 47 48 49 50
000
AXUS43 KLBF 312310
MISLBF


WESTERN AND NORTH CENTRAL NEBRASKA HOURLY WEATHER ROUNDUP
NATIONAL WEATHER SERVICE NORTH PLATTE NE
600 PM CDT TUE MAR 31 2015

***STATIONS NOT REPORTING VARIABLES SUCH AS SKY/WEATHER OR
PRESSURE ARE PROVIDED BY THE NEBRASKA DEPARTMENT OF
ROADS...RAWS...AND APRS NETWORKS...AND ARE NOT UNDER
NATIONAL WEATHER SERVICE QUALITY CONTROL***

...OBSERVATIONS IN AND NEAR THE EASTERN PANHANDLE OF NEBRASKA...

CITY           SKY/WX    TMP DP  RH WIND       PRES   REMARKS
PINE RIDGE     MOSUNNY   78  16   9 SW14      29.75F
CHADRON        SUNNY     79  22  12 SW9       29.72F
ALLIANCE       SUNNY     78  32  18 SW13      29.79F
SIDNEY         SUNNY     77  21  12 S12G20    29.83F
CRESCENT LAKE    N/A     79  15   9 S7G16       N/A
BIG SPRINGS      N/A     80  16   9 NW5         N/A
$$

...OBSERVATIONS IN NORTH CENTRAL NEBRASKA...

CITY           SKY/WX    TMP DP  RH WIND       PRES   REMARKS
VALENTINE      PTSUNNY   81  19  10 SW15      29.76F
THEDFORD       SUNNY     80  26  13 S10G24    29.80F
AINSWORTH      MOSUNNY   78  24  13 S12       29.78F
O`NEILL        MOSUNNY   79  29  16 SW13      29.81F
ORD            SUNNY     78  24  13 S12G24    29.82F
BROKEN BOW     SUNNY     79  28  15 SW15G26   29.83F
SPRINGVIEW       N/A     80  30  16 SW6         N/A
SARGENT          N/A     77  26  15 SW5G15      N/A
COMSTOCK         N/A     84  24  11 SW15        N/A
EWING            N/A     78  34  20 S10G20      N/A
$$

...OBSERVATIONS IN SOUTHWEST NEBRASKA AND FAR NORTHEAST COLORADO...

CITY           SKY/WX    TMP DP  RH WIND       PRES   REMARKS
WRAY           FAIR      83  15   8 SW3       29.84F
HOLYOKE        FAIR      82  14   7 S9        29.83F
IMPERIAL         N/A     80  15   8 S7        29.82F
OGALLALA       SUNNY     80  21  11 SW7       29.81F
NORTH PLATTE   SUNNY     79  22  12 S9G18     29.80F
MCCOOK         SUNNY     83  21  10 S15       29.81F
LEXINGTON      SUNNY     79  26  14 S17G24    29.84F
PAXTON           N/A     81  22  11 CALM        N/A
BRADY            N/A     79  26  14 CALM        N/A
GOTHENBURG       N/A     78  25  14 S8          N/A
CALLAWAY         N/A     78  30  17 SW14        N/A
$$

...NORTH PLATTE AREA...

CITY           SKY/WX    TMP DP  RH WIND       PRES   REMARKS
AIRPORT        SUNNY     79  22  12 S9G18     29.80F
DOWNTOWN         N/A     81  17   9 SW7         N/A
$$

...SOME WEATHER OBSERVATIONS FROM AROUND THE REGION...

CITY           SKY/WX    TMP DP  RH WIND       PRES   REMARKS
DENVER         MOSUNNY   75  17  11 VRB6      29.87F
LARAMIE        MOSUNNY   66  13  12 SW15G23   29.94F
CHEYENNE       MOSUNNY   69  15  12 SW15      29.89F
SCOTTSBLUFF    SUNNY     79  19  10 S9        29.77F
RAPID CITY     CLOUDY    79  19  10 SW10      29.69F
PIERRE         SUNNY     79  24  13 SW10      29.68F
WINNER         FAIR      82  22  11 SW12      29.74F
SIOUX FALLS    MOSUNNY   75  30  19 S9G16     29.82F
OMAHA          SUNNY     76  30  18 S10       29.88F
GRAND ISLAND   SUNNY     78  26  14 S12G20    29.85F
KANSAS CITY    SUNNY     74  31  20 S5        29.91F
WICHITA        SUNNY     82  32  16 SE8       29.88F
HAYS           SUNNY     81  30  16 SE13G22   29.88F
LIBERAL        SUNNY     82  34  17 SE14      29.89F
GOODLAND       SUNNY     80  15   8 SW9       29.86F
$$



USA.gov is the U.S. government's official web portal to all federal, state and local government web resources and services.